TimeCDT,TemperatureF,Dew PointF,Humidity,Sea Level PressureIn,VisibilityMPH,Wind Direction,Wind SpeedMPH,Gust SpeedMPH,PrecipitationIn,Events,Conditions,WindDirDegrees,DateUTC
12:51 AM,39.9,28.9,65,30.28,10.0,North,6.9,-,N/A,,Mostly Cloudy,350,2012-10-28 05:51:00
1:51 AM,37.9,28.9,70,30.27,10.0,North,5.8,-,N/A,,Mostly Cloudy,350,2012-10-28 06:51:00
2:51 AM,39.9,28.0,63,30.26,10.0,North,6.9,-,N/A,,Mostly Cloudy,10,2012-10-28 07:51:00
3:51 AM,36.0,28.0,73,30.26,10.0,NNW,5.8,-,N/A,,Mostly Cloudy,340,2012-10-28 08:51:00
4:51 AM,37.0,28.9,73,30.26,10.0,North,4.6,-,N/A,,Mostly Cloudy,350,2012-10-28 09:51:00
5:51 AM,37.0,28.9,73,30.27,10.0,North,4.6,-,N/A,,Scattered Clouds,360,2012-10-28 10:51:00
6:51 AM,35.1,28.0,76,30.28,10.0,NNW,4.6,-,N/A,,Scattered Clouds,340,2012-10-28 11:51:00
7:51 AM,34.0,28.0,79,30.29,10.0,North,5.8,-,N/A,,Partly Cloudy,350,2012-10-28 12:51:00
8:51 AM,39.0,28.9,67,30.30,10.0,NNW,6.9,-,N/A,,Partly Cloudy,340,2012-10-28 13:51:00
9:51 AM,43.0,30.0,60,30.29,10.0,North,11.5,-,N/A,,Clear,360,2012-10-28 14:51:00
10:51 AM,46.0,30.9,56,30.30,10.0,North,11.5,-,N/A,,Partly Cloudy,350,2012-10-28 15:51:00
11:51 AM,48.0,32.0,54,30.29,10.0,North,13.8,-,N/A,,Scattered Clouds,360,2012-10-28 16:51:00
12:51 PM,50.0,32.0,50,30.27,10.0,North,11.5,17.3,N/A,,Scattered Clouds,350,2012-10-28 17:51:00
1:51 PM,50.0,32.0,50,30.26,10.0,NNW,9.2,-,N/A,,Mostly Cloudy,330,2012-10-28 18:51:00
2:51 PM,50.0,30.9,48,30.25,10.0,NNW,9.2,-,N/A,,Mostly Cloudy,340,2012-10-28 19:51:00
3:51 PM,51.8,30.2,44,30.23,10.0,NW,8.1,-,N/A,,Mostly Cloudy,320,2012-10-28 20:51:00
4:02 PM,51.8,30.2,44,30.23,10.0,NW,8.1,-,N/A,,Mostly Cloudy,320,2012-10-28 21:02:00
4:51 PM,51.1,30.0,44,30.24,10.0,North,6.9,18.4,N/A,,Mostly Cloudy,10,2012-10-28 21:51:00
5:51 PM,48.0,30.9,52,30.25,10.0,North,8.1,-,N/A,,Mostly Cloudy,350,2012-10-28 22:51:00
6:51 PM,46.0,32.0,58,30.26,10.0,North,5.8,-,N/A,,Scattered Clouds,350,2012-10-28 23:51:00
7:51 PM,44.1,33.1,65,30.27,10.0,North,5.8,-,N/A,,Partly Cloudy,350,2012-10-29 00:51:00
8:51 PM,43.0,33.1,68,30.27,10.0,NNW,4.6,-,N/A,,Clear,330,2012-10-29 01:51:00
9:51 PM,42.1,33.1,70,30.28,10.0,NW,4.6,-,N/A,,Clear,320,2012-10-29 02:51:00
10:51 PM,41.0,33.1,73,30.29,10.0,NNW,5.8,-,N/A,,Partly Cloudy,330,2012-10-29 03:51:00
11:51 PM,41.0,30.9,67,30.30,10.0,North,4.6,-,N/A,,Clear,360,2012-10-29 04:51:00